C/2023 TD22 ( Lemmon )

Japanese version
Home page
Updated on August 10, 2025

---------------------------------------------------------------------

* Profile

Discovery Date October 12, 2023
Magnitude 21.5 mag
Discoverer Mt. Lemmon Survey

* Pictures

* Orbital Elements

Epoch 2025 May 5.0 TT = JDT 2460800.5
T 2024 Sept. 16.30184 TT                                Pike
q   2.3567210            (2000.0)            P               Q
z  +0.0206922      Peri.   32.54082     +0.89046236     -0.45477498
 +/-0.0000016      Node     5.56259     -0.44481831     -0.86246448
e   0.9512344      Incl.  170.48992     -0.09598669     -0.22211425
From 591 observations 2023 Sept. 26-2025 July 15, mean residual 0".4.

* Magnitudes Graph

        H = 14.5  G = 0.15                     [    ,-112]  (             - 2024 May  27)
        m1 = 0.8 + 5 log d + 40 log r(t + 10)  [-112,  86]  (2024 May  27 - 2024 Dec. 11)
        H = 14.5  G = 0.15                     [  86,    ]  (2024 Dec. 11 -             )

---------------------------------------------------------------------

The orbital elements are published on M.P.E.C. 2025-O159.
The magnitudes graphs are made with Comet for Windows.

---------------------------------------------------------------------

Copyright(C) Seiichi Yoshida (comet@aerith.net). All rights reserved.